| time (UTC) | temp F | wind direction | speed MPH | gust MPH | rain 1hr in | rain 24hr in | rain mn in | humidity % | barometer mb |
| 20260505200015 | 43 | 340 | 0.0 | 0.0 | 0.00 | 0.00 | 0.00 | 69 | 1011.1 |
| 20260505194505 | 45 | 340 | 0.0 | 1.0 | 0.00 | 0.00 | 0.00 | 66 | 1011.1 |
| 20260505193003 | 47 | 340 | 0.0 | 0.0 | 0.00 | 0.00 | 0.00 | 61 | 1011.1 |
| 20260505191504 | 48 | 340 | 0.0 | 1.0 | 0.00 | 0.00 | 0.00 | 54 | 1011.0 |
| 20260505190002 | 50 | 340 | 0.0 | 2.0 | 0.00 | 0.00 | 0.00 | 50 | 1010.9 |
| 20260505184502 | 51 | 339 | 1.0 | 3.0 | 0.00 | 0.00 | 0.00 | 48 | 1011.0 |
| 20260505183006 | 52 | 344 | 1.0 | 3.0 | 0.00 | 0.00 | 0.00 | 45 | 1011.0 |
| 20260505181501 | 52 | 349 | 0.0 | 5.0 | 0.00 | 0.00 | 0.00 | 43 | 1011.0 |
| 20260505180001 | 53 | 330 | 1.0 | 5.0 | 0.00 | 0.00 | 0.00 | 42 | 1011.0 |
| 20260505173100 | 54 | 360 | 3.0 | 8.0 | 0.00 | 0.00 | 0.00 | 39 | 1011.0 |
| 20260505171559 | 54 | 46 | 3.0 | 9.0 | 0.00 | 0.00 | 0.00 | 38 | 1011.1 |
| 20260505170101 | 55 | 11 | 3.0 | 10.0 | 0.00 | 0.00 | 0.00 | 42 | 1011.0 |
| 20260505164630 | 55 | 336 | 3.0 | 13.0 | 0.00 | 0.00 | 0.00 | 41 | 1011.1 |
| 20260505163057 | 56 | 31 | 4.0 | 12.0 | 0.00 | 0.00 | 0.00 | 36 | 1011.0 |
| 20260505161559 | 56 | 350 | 4.0 | 14.0 | 0.00 | 0.00 | 0.00 | 37 | 1011.0 |
| 20260505160107 | 57 | 348 | 3.0 | 11.0 | 0.00 | 0.00 | 0.00 | 39 | 1010.8 |
| 20260505153053 | 58 | 23 | 4.0 | 12.0 | 0.00 | 0.00 | 0.00 | 41 | 1010.7 |
| 20260505151552 | 58 | 331 | 6.0 | 14.0 | 0.00 | 0.00 | 0.00 | 38 | 1010.9 |
| 20260505124543 | 59 | 344 | 3.0 | 11.0 | 0.00 | 0.00 | 0.00 | 45 | 1011.0 |
| 20260505123035 | 58 | 318 | 6.0 | 11.0 | 0.00 | 0.00 | 0.00 | 43 | 1010.9 |
| 20260505121536 | 58 | 319 | 5.0 | 14.0 | 0.00 | 0.00 | 0.00 | 45 | 1011.0 |
| 20260505120038 | 58 | 51 | 4.0 | 10.0 | 0.00 | 0.00 | 0.00 | 45 | 1011.0 |
| 20260505114530 | 58 | 19 | 4.0 | 9.0 | 0.00 | 0.00 | 0.00 | 47 | 1011.0 |
| 20260505113032 | 58 | 325 | 3.0 | 9.0 | 0.00 | 0.00 | 0.00 | 51 | 1011.1 |
| 20260505111527 | 57 | 47 | 5.0 | 11.0 | 0.00 | 0.00 | 0.00 | 57 | 1011.1 |
| 20260505101526 | 56 | 324 | 2.0 | 13.0 | 0.00 | 0.00 | 0.00 | 58 | 1011.3 |
| 20260505100022 | 56 | 22 | 2.0 | 9.0 | 0.00 | 0.00 | 0.00 | 60 | 1011.4 |
| 20260505094525 | 56 | 317 | 6.0 | 11.0 | 0.00 | 0.01 | 0.00 | 57 | 1011.5 |
| 20260505093015 | 54 | 26 | 3.0 | 11.0 | 0.00 | 0.01 | 0.00 | 63 | 1011.5 |
| 20260505091512 | 52 | 320 | 5.0 | 10.0 | 0.00 | 0.01 | 0.00 | 64 | 1011.6 |
| 20260505090011 | 53 | 63 | 5.0 | 13.0 | 0.00 | 0.01 | 0.00 | 63 | 1011.6 |
| 20260505084509 | 53 | 5 | 4.0 | 10.0 | 0.00 | 0.01 | 0.00 | 63 | 1011.6 |
| 20260505083008 | 55 | 54 | 2.0 | 5.0 | 0.00 | 0.01 | 0.00 | 62 | 1011.5 |
| 20260505081506 | 52 | 304 | 3.0 | 10.0 | 0.00 | 0.01 | 0.00 | 65 | 1011.6 |
| 20260505080005 | 53 | 22 | 3.0 | 9.0 | 0.00 | 0.01 | 0.00 | 63 | 1011.5 |
| 20260505074503 | 54 | 355 | 4.0 | 10.0 | 0.00 | 0.01 | 0.00 | 62 | 1011.6 |
| 20260505073001 | 52 | 313 | 2.0 | 5.0 | 0.00 | 0.01 | 0.00 | 67 | 1011.5 |
| 20260505071600 | 51 | 346 | 3.0 | 8.0 | 0.00 | 0.01 | 0.00 | 70 | 1011.5 |
| 20260505070100 | 51 | 32 | 3.0 | 9.0 | 0.00 | 0.01 | 0.00 | 69 | 1011.5 |
| 20260505064600 | 52 | 335 | 6.0 | 10.0 | 0.00 | 0.01 | 0.00 | 67 | 1011.4 |
| 20260505063113 | 52 | 333 | 4.0 | 11.0 | 0.00 | 0.01 | 0.00 | 69 | 1011.4 |
| 20260505061555 | 52 | 324 | 2.0 | 12.0 | 0.00 | 0.01 | 0.00 | 73 | 1011.3 |
| 20260505060053 | 51 | 325 | 5.0 | 12.0 | 0.00 | 0.01 | 0.00 | 72 | 1011.4 |
| 20260505054554 | 51 | 355 | 4.0 | 9.0 | 0.00 | 0.01 | 0.00 | 72 | 1011.2 |
| 20260505053054 | 51 | 327 | 1.0 | 6.0 | 0.00 | 0.01 | 0.00 | 74 | 1011.3 |
| 20260505051540 | 50 | 325 | 2.0 | 9.0 | 0.00 | 0.01 | 0.00 | 76 | 1011.3 |
| 20260505041537 | 45 | 302 | 0.0 | 1.0 | 0.00 | 0.01 | 0.00 | 84 | 1011.2 |
| 20260505040033 | 45 | 301 | 0.0 | 2.0 | 0.00 | 0.01 | 0.00 | 84 | 1011.2 |
| 20260505034524 | 45 | 301 | 0.0 | 2.0 | 0.00 | 0.01 | 0.00 | 84 | 1011.3 |
| 20260505033020 | 45 | 311 | 0.0 | 0.0 | 0.00 | 0.01 | 0.00 | 84 | 1011.4 |
| 20260505031533 | 44 | 313 | 0.0 | 0.0 | 0.00 | 0.01 | 0.00 | 84 | 1011.4 |
| 20260505030017 | 44 | 313 | 0.0 | 1.0 | 0.00 | 0.01 | 0.00 | 84 | 1011.3 |
| 20260505024516 | 45 | 313 | 0.0 | 2.0 | 0.00 | 0.01 | 0.00 | 83 | 1011.4 |
| 20260505023015 | 45 | 315 | 0.0 | 3.0 | 0.00 | 0.01 | 0.00 | 83 | 1011.3 |
| 20260505021513 | 45 | 278 | 0.0 | 3.0 | 0.00 | 0.01 | 0.00 | 83 | 1011.5 |
| 20260505020013 | 45 | 336 | 0.0 | 4.0 | 0.00 | 0.01 | 0.00 | 82 | 1011.4 |
| 20260505014512 | 45 | 332 | 1.0 | 8.0 | 0.00 | 0.01 | 0.00 | 82 | 1011.4 |
| 20260505013011 | 45 | 330 | 1.0 | 5.0 | 0.00 | 0.01 | 0.00 | 82 | 1011.4 |
| 20260505011509 | 45 | 322 | 0.0 | 5.0 | 0.00 | 0.01 | 0.00 | 83 | 1011.5 |
| 20260505010007 | 45 | 341 | 1.0 | 5.0 | 0.00 | 0.01 | 0.00 | 84 | 1011.5 |
| 20260505004506 | 45 | 294 | 0.0 | 5.0 | 0.00 | 0.01 | 0.00 | 84 | 1011.7 |
| 20260505003006 | 45 | 322 | 0.0 | 4.0 | 0.00 | 0.01 | 0.00 | 84 | 1011.6 |
| 20260505001504 | 44 | 313 | 0.0 | 3.0 | 0.00 | 0.01 | 0.00 | 85 | 1011.6 |
| 20260505000001 | 45 | 340 | 0.0 | 0.0 | 0.00 | 0.01 | 0.00 | 84 | 1011.7 |
| 20260504234600 | 45 | 340 | 0.0 | 1.0 | 0.00 | 0.02 | 0.00 | 82 | 1011.7 |
| 20260504233111 | 47 | 340 | 0.0 | 2.0 | 0.00 | 0.02 | 0.00 | 80 | 1011.7 |
| 20260504231601 | 47 | 342 | 0.0 | 6.0 | 0.00 | 0.02 | 0.00 | 81 | 1011.7 |
| 20260504230057 | 47 | 337 | 2.0 | 4.0 | 0.00 | 0.02 | 0.00 | 81 | 1011.8 |
| 20260504224602 | 47 | 313 | 2.0 | 6.0 | 0.00 | 0.09 | 0.00 | 82 | 1011.7 |
| 20260504223112 | 45 | 294 | 0.0 | 3.0 | 0.00 | 0.09 | 0.00 | 81 | 1011.8 |
| 20260504221549 | 45 | 266 | 0.0 | 0.0 | 0.00 | 0.09 | 0.00 | 79 | 1011.6 |
| 20260504220048 | 45 | 267 | 0.0 | 1.0 | 0.00 | 0.09 | 0.00 | 79 | 1011.8 |
| 20260504214546 | 45 | 267 | 0.0 | 1.0 | 0.00 | 0.14 | 0.09 | 77 | 1011.8 |
| 20260504213054 | 46 | 267 | 0.0 | 1.0 | 0.00 | 0.14 | 0.09 | 77 | 1011.8 |
| 20260504211541 | 46 | 267 | 0.0 | 1.0 | 0.00 | 0.14 | 0.09 | 76 | 1011.8 |
| 20260504210041 | 47 | 267 | 0.0 | 1.0 | 0.00 | 0.14 | 0.09 | 75 | 1011.8 |
| 20260504204545 | 47 | 266 | 0.0 | 1.0 | 0.00 | 0.28 | 0.09 | 76 | 1011.7 |
| 20260504203044 | 47 | 267 | 0.0 | 0.0 | 0.00 | 0.28 | 0.09 | 76 | 1011.7 |
| 20260504201601 | 48 | 266 | 0.0 | 0.0 | 0.00 | 0.28 | 0.09 | 76 | 1011.7 |